Date String (YYYY-MM-DD hh:mm:ss) UTC,Instrument flags,absolute air pressure of the measurement (hPa),sample flow rate (lpm),inlet stack bypass flow (lpm),air temperature of the measurement (°C),ambient temperature measured by the external sensor (°C),aerosol sample conditioner tube jacket temperature (°C),OPC LED temperature (°C),internal box temperature (°C),relative humidity of the measurement (%),span deviation,mass concentration of particles derived from Lorenz-Mie calculation of OPC scattering (μg/m³),mass concentration of particles derived from Lorenz-Mie calculation of OPC scattering (μg/m³),mass concentration of particles derived from Lorenz-Mie calculation of OPC scattering (μg/m³)
DateTimeUTC,F1_M11,P_M11,Q1_M11,Q2_M11,T1_M11,T2_M11,T3_M11,T4_M11,T5_M11,U1_M11,ZSPAN_M11,X0_M11,X2_M11,X1_M11
2023-11-19 20:00:00,SystemResetWarning,0819.9,5.00,000.00,025.9,025.1,000.0,034.2,027.3,14.4,0000.0,0003.94,0001.44,0001.04
2023-11-19 20:01:00,SystemResetWarning,0819.9,5.00,000.00,026.0,025.1,000.0,034.2,027.3,14.5,0000.0,0003.90,0001.44,0001.03
2023-11-19 20:02:00,SystemResetWarning,0820.2,5.00,000.00,026.0,025.1,000.0,034.2,027.3,14.4,0000.0,0003.61,0001.45,0001.03
2023-11-19 20:03:00,SystemResetWarning,0820.0,5.00,000.00,026.0,025.1,000.0,034.2,027.3,14.4,0000.0,0003.58,0001.43,0001.02
2023-11-19 20:04:00,SystemResetWarning,0819.9,5.00,000.00,026.0,025.1,000.0,034.2,027.4,14.4,0000.0,0003.50,0001.42,0001.02
2023-11-19 20:05:00,SystemResetWarning,0820.0,5.00,000.00,026.0,025.1,000.0,034.2,027.3,14.3,0000.0,0004.08,0001.40,0001.03
2023-11-19 20:06:00,SystemResetWarning,0819.9,4.99,000.00,026.0,025.1,000.0,034.2,027.3,14.2,0000.0,0004.55,0001.36,0001.01
2023-11-19 20:07:00,SystemResetWarning,0819.9,4.99,000.00,026.0,025.2,000.0,034.3,027.4,14.2,0000.0,0004.45,0001.33,0001.01
2023-11-19 20:08:00,SystemResetWarning,0820.2,4.99,000.00,026.0,025.2,000.0,034.3,027.4,14.1,0000.0,0004.45,0001.34,0001.00
2023-11-19 20:09:00,SystemResetWarning,0820.4,5.00,000.00,026.0,025.2,000.0,034.3,027.4,14.1,0000.0,0004.38,0001.31,0000.99
2023-11-19 20:10:00,SystemResetWarning,0820.2,4.99,000.00,026.0,025.2,000.0,034.3,027.4,14.1,0000.0,0004.42,0001.32,0000.99
2023-11-19 20:11:00,SystemResetWarning,0820.3,4.99,000.00,026.0,025.2,000.0,034.3,027.4,14.1,0000.0,0004.40,0001.33,0000.99
2023-11-19 20:12:00,SystemResetWarning,0820.4,5.00,000.00,026.0,025.2,000.0,034.3,027.4,14.0,0000.0,0003.53,0001.32,0000.99
2023-11-19 20:13:00,SystemResetWarning,0819.8,5.00,000.00,026.0,025.2,000.0,034.3,027.4,14.0,0000.0,0003.47,0001.32,0000.99
2023-11-19 20:14:00,SystemResetWarning,0819.8,5.01,000.00,026.1,025.2,000.0,034.3,027.4,13.9,0000.0,0003.52,0001.33,0000.98
2023-11-19 20:15:00,SystemResetWarning,0819.9,5.01,000.00,026.1,025.2,000.0,034.3,027.4,14.1,0000.0,0003.56,0001.32,0000.97
2023-11-19 20:16:00,SystemResetWarning,0819.8,5.00,000.00,026.1,025.2,000.0,034.3,027.4,14.0,0000.0,0003.02,0001.29,0000.96
2023-11-19 20:17:00,SystemResetWarning,0819.7,5.00,000.00,026.1,025.2,000.0,034.3,027.4,14.0,0000.0,0002.49,0001.30,0000.96
2023-11-19 20:18:00,SystemResetWarning,0819.8,5.00,000.00,026.1,025.2,000.0,034.3,027.5,14.0,0000.0,0002.56,0001.32,0000.97
2023-11-19 20:19:00,SystemResetWarning,0819.8,4.99,000.00,026.1,025.2,000.0,034.3,027.4,14.0,0000.0,0002.57,0001.32,0000.97
2023-11-19 20:20:00,SystemResetWarning,0819.9,4.99,000.00,026.1,025.2,000.0,034.3,027.4,13.9,0000.0,0002.59,0001.35,0000.97
2023-11-19 20:21:00,SystemResetWarning,0819.7,5.00,000.00,026.1,025.2,000.0,034.3,027.4,13.8,0000.0,0002.54,0001.32,0000.97
2023-11-19 20:22:00,SystemResetWarning,0820.0,4.99,000.00,026.1,025.2,000.0,034.3,027.4,13.8,0000.0,0002.67,0001.33,0000.98
2023-11-19 20:23:00,SystemResetWarning,0819.9,5.01,000.00,026.1,025.2,000.0,034.4,027.4,13.9,0000.0,0003.07,0001.32,0000.99
2023-11-19 20:24:00,SystemResetWarning,0820.1,5.00,000.00,026.1,025.2,000.0,034.4,027.4,13.5,0000.0,0003.15,0001.34,0001.00
2023-11-19 20:25:00,SystemResetWarning,0820.2,5.00,000.00,026.1,025.2,000.0,034.4,027.4,13.5,0000.0,0003.34,0001.34,0001.01
2023-11-19 20:26:00,SystemResetWarning,0820.0,5.01,000.00,026.1,025.2,000.0,034.4,027.4,13.4,0000.0,0003.34,0001.34,0001.02
2023-11-19 20:27:00,SystemResetWarning,0819.9,5.00,000.00,026.1,025.2,000.0,034.4,027.5,13.6,0000.0,0003.15,0001.32,0001.02
2023-11-19 20:28:00,SystemResetWarning,0819.7,4.99,000.00,026.1,025.2,000.0,034.4,027.5,13.4,0000.0,0003.14,0001.31,0001.02
2023-11-19 20:29:00,SystemResetWarning,0819.8,4.99,000.00,026.1,025.3,000.0,034.4,027.5,13.3,0000.0,0003.16,0001.31,0001.01
2023-11-19 20:30:00,SystemResetWarning,0819.7,5.00,000.00,026.1,025.3,000.0,034.4,027.5,13.4,0000.0,0003.15,0001.30,0001.01
2023-11-19 20:31:00,SystemResetWarning,0819.6,5.01,000.00,026.1,025.3,000.0,034.4,027.5,13.9,0000.0,0002.98,0001.25,0000.99
2023-11-19 20:32:00,SystemResetWarning,0819.7,5.00,000.00,026.1,025.3,000.0,034.4,027.5,13.8,0000.0,0003.11,0001.25,0000.99
2023-11-19 20:33:00,SystemResetWarning,0819.9,5.00,000.00,026.2,025.3,000.0,034.4,027.5,13.6,0000.0,0003.22,0001.25,0000.98
2023-11-19 20:34:00,SystemResetWarning,0819.8,5.00,000.00,026.2,025.3,000.0,034.4,027.5,13.6,0000.0,0002.71,0001.25,0000.96
2023-11-19 20:35:00,SystemResetWarning,0819.6,5.00,000.00,026.2,025.3,000.0,034.4,027.5,13.5,0000.0,0002.69,0001.26,0000.95
2023-11-19 20:36:00,SystemResetWarning,0819.7,5.00,000.00,026.2,025.3,000.0,034.4,027.6,13.5,0000.0,0002.52,0001.24,0000.95
2023-11-19 20:37:00,SystemResetWarning,0819.5,5.00,000.00,026.2,025.4,000.0,034.4,027.6,13.7,0000.0,0002.50,0001.25,0000.94
2023-11-19 20:38:00,SystemResetWarning,0819.7,5.00,000.00,026.2,025.4,000.0,034.4,027.6,13.7,0000.0,0002.54,0001.27,0000.95
2023-11-19 20:39:00,SystemResetWarning,0819.5,5.00,000.00,026.2,025.4,000.0,034.5,027.6,13.6,0000.0,0002.97,0001.28,0000.97
2023-11-19 20:40:00,SystemResetWarning,0819.5,5.00,000.00,026.2,025.4,000.0,034.5,027.6,13.5,0000.0,0003.34,0001.28,0000.97
2023-11-19 20:41:00,SystemResetWarning,0819.5,5.00,000.00,026.2,025.4,000.0,034.5,027.6,13.5,0000.0,0003.70,0001.33,0000.98
2023-11-19 20:42:00,SystemResetWarning,0819.5,4.99,000.00,026.2,025.4,000.0,034.5,027.6,13.3,0000.0,0004.15,0001.39,0000.99
2023-11-19 20:43:00,SystemResetWarning,0819.5,5.00,000.00,026.3,025.4,000.0,034.5,027.6,13.3,0000.0,0004.08,0001.40,0000.99
2023-11-19 20:44:00,SystemResetWarning,0819.4,5.00,000.00,026.3,025.4,000.0,034.5,027.7,13.2,0000.0,0003.81,0001.37,0000.99
2023-11-19 20:45:00,SystemResetWarning,0819.4,5.01,000.00,026.3,025.4,000.0,034.5,027.7,13.2,0000.0,0004.36,0001.42,0001.00
2023-11-19 20:46:00,SystemResetWarning,0819.4,5.01,000.00,026.3,025.4,000.0,034.5,027.6,13.2,0000.0,0004.67,0001.44,0000.99
2023-11-19 20:47:00,SystemResetWarning,0819.4,5.01,000.00,026.3,025.4,000.0,034.5,027.7,13.0,0000.0,0004.84,0001.47,0000.98
2023-11-19 20:48:00,SystemResetWarning,0819.5,4.99,000.00,026.3,025.5,000.0,034.5,027.6,13.0,0000.0,0005.64,0001.45,0000.97
2023-11-19 20:49:00,SystemResetWarning,0819.4,4.99,000.00,026.3,025.4,000.0,034.5,027.6,13.1,0000.0,0005.57,0001.40,0000.95
2023-11-19 20:50:00,SystemResetWarning,0819.5,5.00,000.00,026.3,025.4,000.0,034.6,027.7,13.1,0000.0,0005.12,0001.40,0000.94
2023-11-19 20:51:00,SystemResetWarning,0819.4,5.00,000.00,026.3,025.5,000.0,034.6,027.7,13.1,0000.0,0004.62,0001.37,0000.93
2023-11-19 20:52:00,SystemResetWarning,0819.4,5.00,000.00,026.3,025.5,000.0,034.6,027.7,13.0,0000.0,0004.25,0001.32,0000.92
2023-11-19 20:53:00,SystemResetWarning,0819.4,5.00,000.00,026.3,025.5,000.0,034.6,027.7,13.0,0000.0,0003.86,0001.28,0000.91
2023-11-19 20:54:00,SystemResetWarning,0819.4,5.00,000.00,026.3,025.5,000.0,034.6,027.7,13.0,0000.0,0003.76,0001.23,0000.90
2023-11-19 20:55:00,SystemResetWarning,0819.4,5.00,000.00,026.4,025.5,000.0,034.6,027.7,13.1,0000.0,0003.78,0001.22,0000.88
2023-11-19 20:56:00,SystemResetWarning,0819.4,5.00,000.00,026.4,025.5,000.0,034.6,027.7,13.1,0000.0,0004.26,0001.15,0000.86
2023-11-19 20:57:00,SystemResetWarning,0819.4,4.99,000.00,026.4,025.5,000.0,034.6,027.7,13.2,0000.0,0004.20,0001.12,0000.86
2023-11-19 20:58:00,SystemResetWarning,0819.4,5.00,000.00,026.4,025.5,000.0,034.6,027.7,13.0,0000.0,0004.03,0001.05,0000.86
2023-11-19 20:59:00,SystemResetWarning,0819.4,5.00,000.00,026.4,025.5,000.0,034.6,027.8,13.0,0000.0,0002.94,0001.02,0000.86
